(°C)
11°
12°
13°
15°
16°
17°
18°
(°C)
10°
11°
11°
L
L
L
L
L
ENE
L
(km/h)
18-23
19-22
20-26
21-30
20-32
22-34
24-35
(mm)
0
0
0
0
0
0
0
(%)
0
7
0
7
7
7
7

Elevação do sol

/ -0.7°
sun-icon
UV 1
07:19
19:33
Minguante gibosa (209°)
20:36
09:40

METAR para 51.15°N 51.54°L (UARR)

Hora Condições Temperatura/
Ponto de condensação
Vento Visibilidade Tempo Nuvens Pressão Mudança Bruto
VFR 11°C / 3°C 90º 12kt >10km - Broken Clouds 5000ft 1018 No Significant change. Runway 04: Wet or puddles, 1-10% contamination with 1mm, friction coefficient 0.65. UARR 230200Z 09006MPS 9999 BKN050CB 11/03 Q1018 R04/210165 NOSIG RMK QFE760/1014
VFR 11°C / 3°C 90º 10kt >10km - Broken Clouds 5000ft 1018 No Significant change. Runway 04: Wet or puddles, 1-10% contamination with 1mm, friction coefficient 0.65. UARR 230130Z 09005MPS 9999 BKN050CB 11/03 Q1018 R04/210165 NOSIG RMK QFE760/1014
VFR 11°C / 3°C 90º 12kt >10km - Broken Clouds 5000ft 1018 No Significant change. Runway 04: Wet or puddles, 1-10% contamination with 1mm, friction coefficient 0.65. UARR 230100Z 09006MPS 9999 BKN050CB 11/03 Q1018 R04/210165 NOSIG RMK QFE760/1014
VFR 11°C / 5°C 90º 12kt >10km - Broken Clouds 5000ft 1018 No Significant change. Runway 04: Wet or puddles, 1-10% contamination with 1mm, friction coefficient 0.65. UARR 230030Z 09006MPS 9999 BKN050CB 11/05 Q1018 R04/210165 NOSIG RMK QFE760/1013
VFR 11°C / 5°C 80º 10kt >10km - Broken Clouds 5000ft 1018 No Significant change. Runway 04: Wet or puddles, 1-10% contamination with 1mm, friction coefficient 0.65. UARR 230000Z 08005MPS 9999 BKN050CB 11/05 Q1018 R04/210165 NOSIG RMK QFE760/1013
VFR 11°C / 6°C 90º 10kt >10km Light Showers Rain 3.00mm precipitation Vertical Visibility of 0ft. 1018 No Significant change. Runway 04: Wet or puddles, 1-10% contamination with 1mm, friction coefficient 0.65. UARR 222300Z 09005MPS 9999 -SHRA BKN050CB 11/06 Q1018 R04/210165 NOSIG RMK QFE760/1014
VFR 11°C / 5°C 120º 6kt >10km Light Showers Rain 3.00mm precipitation Vertical Visibility of 0ft. 1018 No Significant change. Runway 04: Wet or puddles, 1-10% contamination with 1mm, friction coefficient 0.65. UARR 222230Z 12003MPS 9999 -SHRA BKN050CB 11/05 Q1018 R04/210165 NOSIG RMK QFE760/1014
VFR 12°C / 4°C 110º 10kt >10km - Broken Clouds 5000ft 1018 No Significant change. Runway 04: Wet or puddles, 1-10% contamination with 1mm, friction coefficient 0.65. UARR 222200Z 11005MPS 9999 BKN050CB 12/04 Q1018 R04/210165 NOSIG RMK QFE760/1014
VFR 12°C / 4°C 110º 10kt >10km - Broken Clouds 5000ft 1018 No Significant change. Runway 04: Wet or puddles, 11-25% contamination with 3mm, friction coefficient 0.60. UARR 222130Z 11005MPS 9999 BKN050CB 12/04 Q1018 R04/220360 NOSIG RMK QFE760/1014
VFR 12°C / 4°C 90º 10kt >10km - Broken Clouds 5000ft 1018 No Significant change. Runway 04: Wet or puddles, 11-25% contamination with 3mm, friction coefficient 0.60. UARR 222100Z 09005MPS 9999 BKN050CB 12/04 Q1018 R04/220360 NOSIG RMK QFE760/1014
VFR 12°C / 5°C 100º 10kt >10km - Broken Clouds 5000ft 1018 No Significant change. Runway 04: Wet or puddles, 11-25% contamination with 3mm, friction coefficient 0.60. UARR 222030Z 10005MPS 9999 BKN050CB 12/05 Q1018 R04/220360 NOSIG RMK QFE760/1014
VFR 12°C / 5°C 100º 10kt >10km - Broken Clouds 5000ft 1018 No Significant change. Runway 04: Wet or puddles, 11-25% contamination with 3mm, friction coefficient 0.60. UARR 222000Z 10005MPS 9999 BKN050CB 12/05 Q1018 R04/220360 NOSIG RMK QFE760/1014
VFR 11°C / 6°C 80º 8kt >10km - Broken Clouds 5000ft 1018 No Significant change. Runway 04: Wet or puddles, 11-25% contamination with 3mm, friction coefficient 0.60. UARR 221930Z 08004MPS 9999 BKN050CB 11/06 Q1018 R04/220360 NOSIG RMK QFE760/1014
VFR 11°C / 7°C 70º 8kt >10km - Broken Clouds 5000ft 1018 No Significant change. Runway 04: Wet or puddles, 11-25% contamination with 3mm, friction coefficient 0.60. UARR 221900Z 07004MPS 9999 BKN050CB 11/07 Q1018 R04/220360 NOSIG RMK QFE760/1014
VFR 11°C / 6°C 70º 10kt >10km - Broken Clouds 5000ft 1018 No Significant change. Runway 04: Wet or puddles, 11-25% contamination with 3mm, friction coefficient 0.60. UARR 221830Z 07005MPS 9999 BKN050CB 11/06 Q1018 R04/220360 NOSIG RMK QFE760/1014
VFR 11°C / 7°C 80º 10kt >10km - Broken Clouds 5000ft 1018 No Significant change. Runway 04: Wet or puddles, 11-25% contamination with 3mm, friction coefficient 0.60. UARR 221800Z 08005MPS 9999 BKN050CB 11/07 Q1018 R04/220360 NOSIG RMK QFE760/1014
VFR 12°C / 6°C 110º 6kt >10km Light Showers Rain 3.00mm precipitation Vertical Visibility of 0ft. 1019 No Significant change UARR 221730Z 11003MPS 9999 -SHRA BKN050CB 12/06 Q1019 R04/CLRD70 NOSIG RMK QFE760/1014
VFR 12°C / 5°C 100º 8kt >10km - Broken Clouds 5000ft 1018 No Significant change UARR 221700Z 10004MPS 9999 BKN050CB 12/05 Q1018 R04/CLRD70 NOSIG RMK QFE760/1014
VFR 12°C / 6°C 80º 8kt >10km - Overcast 5000ft 1018 No Significant change. Runway 04: Damp, 51-100% contamination with <1mm, friction coefficient 0.65. UARR 221630Z 08004MPS 9999 OVC050CB 12/06 Q1018 R04/190065 NOSIG RMK QFE760/1014
VFR 13°C / 6°C 80º 10kt >10km - Overcast 5000ft 1018 No Significant change. Runway 04: Damp, 51-100% contamination with <1mm, friction coefficient 0.65. UARR 221600Z 08005MPS 9999 OVC050CB 13/06 Q1018 R04/190065 NOSIG RMK QFE760/1014
VFR 13°C / 6°C 70º 10kt >10km - Broken Clouds 5000ft 1018 No Significant change. Runway 04: Damp, 51-100% contamination with <1mm, friction coefficient 0.65. UARR 221530Z 07005MPS 9999 BKN050CB 13/06 Q1018 R04/190065 NOSIG RMK QFE760/1014
VFR 13°C / 6°C 70º 10kt >10km - Broken Clouds 5000ft 1018 No Significant change. Runway 04: Damp, 51-100% contamination with <1mm, friction coefficient 0.65. UARR 221500Z 07005MPS 9999 BKN050CB 13/06 Q1018 R04/190065 NOSIG RMK QFE760/1014
VFR 13°C / 6°C 70º 8kt >10km - Broken Clouds 5000ft 1018 No Significant change. Runway 04: Damp, 51-100% contamination with <1mm, friction coefficient 0.65. UARR 221430Z 07004MPS 9999 BKN050CB 13/06 Q1018 R04/190065 NOSIG RMK QFE760/1013
VFR 13°C / 6°C 90º 8kt >10km - Broken Clouds 4600ft 1018 No Significant change. Runway 04: Damp, 51-100% contamination with <1mm, friction coefficient 0.65. UARR 221400Z 09004MPS 9999 BKN046CB 13/06 Q1018 R04/190065 NOSIG RMK QFE760/1013

VFR

11°C / 3°C

[Mais]
Vento 90º 12kt
Visibilidade >10km
Tempo -
Nuvens Broken Clouds 5000ft
Pressão 1018
Mudança No Significant change. Runway 04: Wet or puddles, 1-10% contamination with 1mm, friction coefficient 0.65.
Bruto UARR 230200Z 09006MPS 9999 BKN050CB 11/03 Q1018 R04/210165 NOSIG RMK QFE760/1014

VFR

11°C / 3°C

[Mais]
Vento 90º 10kt
Visibilidade >10km
Tempo -
Nuvens Broken Clouds 5000ft
Pressão 1018
Mudança No Significant change. Runway 04: Wet or puddles, 1-10% contamination with 1mm, friction coefficient 0.65.
Bruto UARR 230130Z 09005MPS 9999 BKN050CB 11/03 Q1018 R04/210165 NOSIG RMK QFE760/1014

VFR

11°C / 3°C

[Mais]
Vento 90º 12kt
Visibilidade >10km
Tempo -
Nuvens Broken Clouds 5000ft
Pressão 1018
Mudança No Significant change. Runway 04: Wet or puddles, 1-10% contamination with 1mm, friction coefficient 0.65.
Bruto UARR 230100Z 09006MPS 9999 BKN050CB 11/03 Q1018 R04/210165 NOSIG RMK QFE760/1014

VFR

11°C / 5°C

[Mais]
Vento 90º 12kt
Visibilidade >10km
Tempo -
Nuvens Broken Clouds 5000ft
Pressão 1018
Mudança No Significant change. Runway 04: Wet or puddles, 1-10% contamination with 1mm, friction coefficient 0.65.
Bruto UARR 230030Z 09006MPS 9999 BKN050CB 11/05 Q1018 R04/210165 NOSIG RMK QFE760/1013

VFR

11°C / 5°C

[Mais]
Vento 80º 10kt
Visibilidade >10km
Tempo -
Nuvens Broken Clouds 5000ft
Pressão 1018
Mudança No Significant change. Runway 04: Wet or puddles, 1-10% contamination with 1mm, friction coefficient 0.65.
Bruto UARR 230000Z 08005MPS 9999 BKN050CB 11/05 Q1018 R04/210165 NOSIG RMK QFE760/1013

VFR

11°C / 6°C

[Mais]
Vento 90º 10kt
Visibilidade >10km
Tempo Light Showers Rain 3.00mm precipitation
Nuvens Vertical Visibility of 0ft.
Pressão 1018
Mudança No Significant change. Runway 04: Wet or puddles, 1-10% contamination with 1mm, friction coefficient 0.65.
Bruto UARR 222300Z 09005MPS 9999 -SHRA BKN050CB 11/06 Q1018 R04/210165 NOSIG RMK QFE760/1014

VFR

11°C / 5°C

[Mais]
Vento 120º 6kt
Visibilidade >10km
Tempo Light Showers Rain 3.00mm precipitation
Nuvens Vertical Visibility of 0ft.
Pressão 1018
Mudança No Significant change. Runway 04: Wet or puddles, 1-10% contamination with 1mm, friction coefficient 0.65.
Bruto UARR 222230Z 12003MPS 9999 -SHRA BKN050CB 11/05 Q1018 R04/210165 NOSIG RMK QFE760/1014

VFR

12°C / 4°C

[Mais]
Vento 110º 10kt
Visibilidade >10km
Tempo -
Nuvens Broken Clouds 5000ft
Pressão 1018
Mudança No Significant change. Runway 04: Wet or puddles, 1-10% contamination with 1mm, friction coefficient 0.65.
Bruto UARR 222200Z 11005MPS 9999 BKN050CB 12/04 Q1018 R04/210165 NOSIG RMK QFE760/1014

VFR

12°C / 4°C

[Mais]
Vento 110º 10kt
Visibilidade >10km
Tempo -
Nuvens Broken Clouds 5000ft
Pressão 1018
Mudança No Significant change. Runway 04: Wet or puddles, 11-25% contamination with 3mm, friction coefficient 0.60.
Bruto UARR 222130Z 11005MPS 9999 BKN050CB 12/04 Q1018 R04/220360 NOSIG RMK QFE760/1014

VFR

12°C / 4°C

[Mais]
Vento 90º 10kt
Visibilidade >10km
Tempo -
Nuvens Broken Clouds 5000ft
Pressão 1018
Mudança No Significant change. Runway 04: Wet or puddles, 11-25% contamination with 3mm, friction coefficient 0.60.
Bruto UARR 222100Z 09005MPS 9999 BKN050CB 12/04 Q1018 R04/220360 NOSIG RMK QFE760/1014

VFR

12°C / 5°C

[Mais]
Vento 100º 10kt
Visibilidade >10km
Tempo -
Nuvens Broken Clouds 5000ft
Pressão 1018
Mudança No Significant change. Runway 04: Wet or puddles, 11-25% contamination with 3mm, friction coefficient 0.60.
Bruto UARR 222030Z 10005MPS 9999 BKN050CB 12/05 Q1018 R04/220360 NOSIG RMK QFE760/1014

VFR

12°C / 5°C

[Mais]
Vento 100º 10kt
Visibilidade >10km
Tempo -
Nuvens Broken Clouds 5000ft
Pressão 1018
Mudança No Significant change. Runway 04: Wet or puddles, 11-25% contamination with 3mm, friction coefficient 0.60.
Bruto UARR 222000Z 10005MPS 9999 BKN050CB 12/05 Q1018 R04/220360 NOSIG RMK QFE760/1014

VFR

11°C / 6°C

[Mais]
Vento 80º 8kt
Visibilidade >10km
Tempo -
Nuvens Broken Clouds 5000ft
Pressão 1018
Mudança No Significant change. Runway 04: Wet or puddles, 11-25% contamination with 3mm, friction coefficient 0.60.
Bruto UARR 221930Z 08004MPS 9999 BKN050CB 11/06 Q1018 R04/220360 NOSIG RMK QFE760/1014

VFR

11°C / 7°C

[Mais]
Vento 70º 8kt
Visibilidade >10km
Tempo -
Nuvens Broken Clouds 5000ft
Pressão 1018
Mudança No Significant change. Runway 04: Wet or puddles, 11-25% contamination with 3mm, friction coefficient 0.60.
Bruto UARR 221900Z 07004MPS 9999 BKN050CB 11/07 Q1018 R04/220360 NOSIG RMK QFE760/1014

VFR

11°C / 6°C

[Mais]
Vento 70º 10kt
Visibilidade >10km
Tempo -
Nuvens Broken Clouds 5000ft
Pressão 1018
Mudança No Significant change. Runway 04: Wet or puddles, 11-25% contamination with 3mm, friction coefficient 0.60.
Bruto UARR 221830Z 07005MPS 9999 BKN050CB 11/06 Q1018 R04/220360 NOSIG RMK QFE760/1014

VFR

11°C / 7°C

[Mais]
Vento 80º 10kt
Visibilidade >10km
Tempo -
Nuvens Broken Clouds 5000ft
Pressão 1018
Mudança No Significant change. Runway 04: Wet or puddles, 11-25% contamination with 3mm, friction coefficient 0.60.
Bruto UARR 221800Z 08005MPS 9999 BKN050CB 11/07 Q1018 R04/220360 NOSIG RMK QFE760/1014

VFR

12°C / 6°C

[Mais]
Vento 110º 6kt
Visibilidade >10km
Tempo Light Showers Rain 3.00mm precipitation
Nuvens Vertical Visibility of 0ft.
Pressão 1019
Mudança No Significant change
Bruto UARR 221730Z 11003MPS 9999 -SHRA BKN050CB 12/06 Q1019 R04/CLRD70 NOSIG RMK QFE760/1014

VFR

12°C / 5°C

[Mais]
Vento 100º 8kt
Visibilidade >10km
Tempo -
Nuvens Broken Clouds 5000ft
Pressão 1018
Mudança No Significant change
Bruto UARR 221700Z 10004MPS 9999 BKN050CB 12/05 Q1018 R04/CLRD70 NOSIG RMK QFE760/1014

VFR

12°C / 6°C

[Mais]
Vento 80º 8kt
Visibilidade >10km
Tempo -
Nuvens Overcast 5000ft
Pressão 1018
Mudança No Significant change. Runway 04: Damp, 51-100% contamination with <1mm, friction coefficient 0.65.
Bruto UARR 221630Z 08004MPS 9999 OVC050CB 12/06 Q1018 R04/190065 NOSIG RMK QFE760/1014

VFR

13°C / 6°C

[Mais]
Vento 80º 10kt
Visibilidade >10km
Tempo -
Nuvens Overcast 5000ft
Pressão 1018
Mudança No Significant change. Runway 04: Damp, 51-100% contamination with <1mm, friction coefficient 0.65.
Bruto UARR 221600Z 08005MPS 9999 OVC050CB 13/06 Q1018 R04/190065 NOSIG RMK QFE760/1014

VFR

13°C / 6°C

[Mais]
Vento 70º 10kt
Visibilidade >10km
Tempo -
Nuvens Broken Clouds 5000ft
Pressão 1018
Mudança No Significant change. Runway 04: Damp, 51-100% contamination with <1mm, friction coefficient 0.65.
Bruto UARR 221530Z 07005MPS 9999 BKN050CB 13/06 Q1018 R04/190065 NOSIG RMK QFE760/1014

VFR

13°C / 6°C

[Mais]
Vento 70º 10kt
Visibilidade >10km
Tempo -
Nuvens Broken Clouds 5000ft
Pressão 1018
Mudança No Significant change. Runway 04: Damp, 51-100% contamination with <1mm, friction coefficient 0.65.
Bruto UARR 221500Z 07005MPS 9999 BKN050CB 13/06 Q1018 R04/190065 NOSIG RMK QFE760/1014

VFR

13°C / 6°C

[Mais]
Vento 70º 8kt
Visibilidade >10km
Tempo -
Nuvens Broken Clouds 5000ft
Pressão 1018
Mudança No Significant change. Runway 04: Damp, 51-100% contamination with <1mm, friction coefficient 0.65.
Bruto UARR 221430Z 07004MPS 9999 BKN050CB 13/06 Q1018 R04/190065 NOSIG RMK QFE760/1013

VFR

13°C / 6°C

[Mais]
Vento 90º 8kt
Visibilidade >10km
Tempo -
Nuvens Broken Clouds 4600ft
Pressão 1018
Mudança No Significant change. Runway 04: Damp, 51-100% contamination with <1mm, friction coefficient 0.65.
Bruto UARR 221400Z 09004MPS 9999 BKN046CB 13/06 Q1018 R04/190065 NOSIG RMK QFE760/1013

TAF para 51.15°N 51.54°L (UARR)

From till


From till Wind 110º 12kt. Gust 21kt. Visibility 10km or more. Broken Clouds 3300ft.
Temporarly from till Light Showers Rain .

Bruto: TAF UARR 230200Z 2303/2312 11006G11MPS 9999 BKN033CB TEMPO 2303/2307 -SHRA

Imagens atuais de satélite e precipitação para 51.15°N 51.54°L

O marcador de lugar é colocado em 51.15°N 51.54°L. [Mais]

A imagem de satélite em tempo real combina luz visível durante o dia com radiação infravermelha durante a noite. À noite, a imagem não é escura, pois a radiação infravermelha pode detectar diferenças de temperatura. Infelizmente, nuvens baixas e neblina são difíceis de distinguir das temperaturas do solo e, portanto, podem ser quase invisíveis durante a noite. As imagens de satélite Meteosat para a Europa são atualizadas em tempo real a cada 5 minutos. GOES-16/GOES-17 ( América do Norte e do Sul) e Himawari (Ásia) são atualizadas a cada 10 minutos.

Copyright 2021 EUMETSAT / meteoblue. / Copyright 2021 meteoblue

Radar e precipitação nowcast para 51.15°N 51.54°L

Chuvisco
Leve
Moderado
Forte
Muito forte
Granizo

O marcador do lugar é colocado em 51.15°N 51.54°L. Esta animação mostra o radar de precipitação para a última hora, assim como a 1h previsão. A queda de neve pode ser invisível para o radar. A intensidade da precipitação é codificada por cores, variando do azul claro ao laranja.